CW0343 Weather Reports


time (UTC)temp
C
wind
direction
speed
KPH
gust
KPH
rain 1hr
cm
rain 24hr
cm
rain mn
cm
humidity
%
barometer
mb
20260509224305 22 152 11.3 19.3 0.00 0.00 0.00 78 1019.5
20260509222805 21 152 19.3 19.3 0.00 0.00 0.00 78 1019.3
20260509222307 21 155 12.9 22.5 0.00 0.00 0.00 78 1019.3
20260509221804 21 126 8.0 16.1 0.00 0.00 0.00 78 1019.3
20260509221304 21 132 8.0 32.2 0.00 0.00 0.00 80 1019.1
20260509220304 21 3 0.0 0.0 0.00 0.00 0.00 80 1019.1
20260509215806 21 3 0.0 0.0 0.00 0.00 0.00 80 1019.3
20260509215306 21 3 0.0 0.0 0.00 0.00 0.00 80 1019.2
20260509214804 21 3 0.0 0.0 0.00 0.00 0.00 80 1019.0
20260509214305 21 3 0.0 14.5 0.00 0.00 0.00 80 1018.6
20260509213805 21 118 14.5 14.5 0.00 0.00 0.00 80 1018.5
20260509213306 21 118 14.5 16.1 0.00 0.00 0.00 80 1018.5
20260509212805 21 1 0.0 0.0 0.00 0.00 0.00 80 1018.4
20260509211804 21 2 0.0 0.0 0.00 0.00 0.00 80 1018.2
20260509211306 21 1 0.0 0.0 0.00 0.00 0.00 80 1018.2
20260509210804 21 7 1.6 8.0 0.00 0.00 0.00 80 1018.0
20260509210305 21 164 8.0 8.0 0.00 0.00 0.00 80 1018.0
20260509205307 21 151 8.0 14.5 0.00 0.00 0.00 80 1017.8
20260509204804 21 2 0.0 0.0 0.00 0.00 0.00 81 1017.8
20260509203305 21 2 0.0 0.0 0.00 0.00 0.00 81 1017.7
20260509202307 21 151 8.0 8.0 0.00 0.00 0.00 81 1017.6
20260509201804 21 150 6.4 8.0 0.00 0.00 0.00 81 1017.4
20260509200805 21 2 0.0 0.0 0.00 0.00 0.00 81 1017.2
20260509200304 21 1 0.0 0.0 0.00 0.00 0.00 81 1017.0
20260509195805 21 93 11.3 11.3 0.00 0.00 0.00 81 1017.0
20260509195307 21 116 11.3 11.3 0.00 0.00 0.00 81 1016.8
20260509194804 21 125 9.7 16.1 0.00 0.00 0.00 81 1016.8
20260509194305 21 139 9.7 19.3 0.00 0.00 0.00 81 1016.7
20260509193804 21 142 6.4 19.3 0.00 0.00 0.00 81 1016.7
20260509193304 21 127 9.7 19.3 0.00 0.00 0.00 80 1016.7
20260509192306 21 142 9.7 19.3 0.00 0.00 0.00 80 1016.6
20260509191305 21 140 4.8 14.5 0.00 0.00 0.00 80 1016.5
20260509190804 21 115 8.0 14.5 0.00 0.00 0.00 80 1016.6
20260509190305 21 122 8.0 14.5 0.00 0.00 0.00 80 1016.6
20260509185804 21 137 9.7 19.3 0.00 0.00 0.00 80 1016.5
20260509184805 21 145 8.0 14.5 0.00 0.00 0.00 80 1016.4
20260509183804 21 120 6.4 12.9 0.00 0.00 0.00 80 1016.4
20260509183304 21 137 6.4 19.3 0.00 0.00 0.00 80 1016.5
20260509182804 21 124 9.7 19.3 0.00 0.00 0.00 79 1016.4
20260509182306 21 129 8.0 19.3 0.00 0.00 0.00 79 1016.3
20260509181805 21 125 8.0 14.5 0.00 0.00 0.00 79 1016.3
20260509181304 21 123 6.4 16.1 0.00 0.00 0.00 79 1016.2
20260509180804 21 126 8.0 19.3 0.00 0.00 0.00 79 1016.3
20260509175806 21 144 4.8 19.3 0.00 0.00 0.00 78 1016.4
20260509175306 21 3 0.0 0.0 0.00 0.00 0.00 81 1016.4
20260509174805 21 3 0.0 0.0 0.00 0.00 0.00 81 1016.5
20260509174304 21 3 0.0 0.0 0.00 0.00 0.00 81 1016.5
20260509173304 21 3 0.0 0.0 0.00 0.00 0.00 81 1016.6
20260509172306 21 3 0.0 0.0 0.00 0.00 0.00 81 1016.5
20260509171805 21 2 0.0 0.0 0.00 0.00 0.00 81 1016.5
20260509171305 21 3 0.0 0.0 0.00 0.00 0.00 81 1016.6
20260509170304 21 3 0.0 0.0 0.00 0.00 0.00 81 1016.6
20260509165804 21 3 0.0 0.0 0.00 0.00 0.00 81 1016.5
20260509165307 21 3 0.0 0.0 0.00 0.00 0.00 81 1016.6
20260509164804 21 3 0.0 0.0 0.00 0.00 0.00 81 1016.6
20260509164304 21 3 0.0 0.0 0.00 0.00 0.00 81 1016.5
20260509162804 21 146 19.3 19.3 0.00 0.00 0.00 81 1016.7
20260509162307 21 146 19.3 22.5 0.00 0.00 0.00 81 1016.7
20260509161805 21 123 14.5 22.5 0.00 0.00 0.00 81 1016.7
20260509161305 20 125 8.0 20.9 0.00 0.00 0.00 81 1016.8
20260509160804 20 7 0.0 4.8 0.00 0.00 0.00 82 1016.8
20260509160304 20 3 0.0 0.0 0.00 0.00 0.00 82 1017.0
20260509155805 20 3 0.0 0.0 0.00 0.00 0.00 82 1017.0
20260509152306 20 3 0.0 0.0 0.00 0.00 0.00 82 1017.4
20260509151804 20 3 0.0 0.0 0.00 0.00 0.00 82 1017.4
20260509151304 20 3 0.0 0.0 0.00 0.00 0.00 82 1017.5
20260509150805 20 3 0.0 0.0 0.00 0.00 0.00 82 1017.5
20260509145804 20 3 0.0 0.0 0.00 0.00 0.00 82 1017.6
20260509145306 20 3 0.0 0.0 0.00 0.00 0.00 82 1017.5
20260509144804 20 3 0.0 0.0 0.00 0.00 0.00 82 1017.6
20260509144304 20 2 0.0 0.0 0.00 0.00 0.00 82 1017.7
20260509143805 20 3 0.0 0.0 0.00 0.00 0.00 82 1017.7
20260509143305 20 3 0.0 0.0 0.00 0.00 0.00 82 1017.8
20260509142805 20 3 0.0 0.0 0.00 0.00 0.00 82 1017.8
20260509142307 20 3 0.0 0.0 0.00 0.00 0.00 82 1017.8
20260509141805 20 3 0.0 0.0 0.00 0.00 0.00 82 1017.9
20260509141304 20 3 0.0 0.0 0.00 0.00 0.00 82 1017.9
20260509140805 20 3 0.0 0.0 0.00 0.00 0.00 82 1017.9
20260509140305 20 3 0.0 0.0 0.00 0.00 0.00 82 1018.0
20260509135804 20 3 0.0 0.0 0.00 0.00 0.00 82 1018.0
20260509135306 20 3 0.0 0.0 0.00 0.00 0.00 82 1017.9
20260509134304 20 3 0.0 0.0 0.00 0.00 0.00 82 1017.8
20260509133804 20 6 1.6 8.0 0.00 0.00 0.00 82 1017.9
20260509132806 20 128 8.0 14.5 0.00 0.00 0.00 82 1017.9
20260509132306 20 107 4.8 12.9 0.00 0.00 0.00 82 1017.9
20260509131305 20 108 4.8 4.8 0.00 0.00 0.00 82 1017.9
20260509130805 20 108 4.8 11.3 0.00 0.00 0.00 82 1018.0
20260509130304 20 132 3.2 4.8 0.00 0.00 0.00 82 1017.9
20260509124805 20 151 8.0 16.1 0.00 0.00 0.00 82 1018.0
20260509124304 20 139 8.0 19.3 0.00 0.00 0.00 82 1018.0
20260509123805 20 137 9.7 19.3 0.00 0.00 0.00 82 1018.2
20260509123305 20 149 9.7 16.1 0.00 0.00 0.00 82 1018.3
20260509122806 19 133 8.0 22.5 0.00 0.00 0.00 82 1018.3
20260509121805 19 136 1.6 14.5 0.00 0.00 0.00 82 1018.5
20260509121304 19 3 0.0 0.0 0.00 0.00 0.00 82 1018.5
20260509120304 19 3 0.0 0.0 0.00 0.00 0.00 82 1018.6
20260509115805 19 1 0.0 0.0 0.00 0.00 0.00 82 1018.5
20260509115307 19 3 0.0 0.0 0.00 0.00 0.00 82 1018.5
20260509114804 19 1 0.0 12.9 0.00 0.00 0.00 82 1018.7
20260509112805 19 167 8.0 19.3 0.00 0.00 0.00 81 1018.6
20260509112307 19 165 9.7 19.3 0.00 0.00 0.00 81 1018.5
20260509111805 19 166 11.3 22.5 0.00 0.00 0.00 81 1018.6
20260509111304 19 151 9.7 20.9 0.00 0.00 0.00 81 1018.6
20260509110804 19 166 9.7 19.3 0.00 0.00 0.00 81 1018.6
20260509110304 19 158 11.3 24.1 0.00 0.00 0.00 81 1018.9
20260509105306 19 160 14.5 24.1 0.00 0.00 0.00 81 1018.9
20260509104805 19 161 8.0 19.3 0.00 0.00 0.00 81 1018.8
20260509104305 19 184 14.5 19.3 0.00 0.00 0.00 81 1018.9
20260509103804 19 172 14.5 19.3 0.00 0.00 0.00 80 1018.9
20260509103304 19 160 14.5 20.9 0.00 0.00 0.00 80 1018.9
20260509102805 19 169 12.9 25.7 0.00 0.00 0.00 80 1018.7
20260509102306 19 151 14.5 22.5 0.00 0.00 0.00 80 1018.7
20260509101804 19 157 11.3 24.1 0.00 0.00 0.00 80 1018.7
20260509101305 19 150 14.5 20.9 0.00 0.00 0.00 80 1018.5
20260509100804 19 162 17.7 24.1 0.00 0.00 0.00 80 1018.5
20260509100305 19 148 9.7 16.1 0.00 0.00 0.00 80 1018.5
20260509095805 19 150 9.7 16.1 0.00 0.00 0.00 79 1018.5
20260509095306 19 149 8.0 16.1 0.00 0.00 0.00 79 1018.5
20260509094805 19 158 11.3 19.3 0.00 0.00 0.00 79 1018.4
20260509094304 19 147 11.3 19.3 0.00 0.00 0.00 79 1018.4
20260509093804 20 146 11.3 19.3 0.00 0.00 0.00 79 1018.2
20260509093304 20 119 12.9 20.9 0.00 0.00 0.00 79 1018.1
20260509092804 20 142 8.0 19.3 0.00 0.00 0.00 78 1018.1
20260509092306 20 154 9.7 19.3 0.00 0.00 0.00 78 1018.0
20260509091805 20 132 11.3 20.9 0.00 0.00 0.00 78 1018.0
20260509091305 20 160 11.3 33.8 0.00 0.00 0.00 78 1017.9
20260509090804 20 160 9.7 19.3 0.00 0.00 0.00 78 1017.9
20260509090304 20 138 9.7 22.5 0.00 0.00 0.00 78 1017.9
20260509085804 20 151 16.1 25.7 0.00 0.00 0.00 78 1017.8
20260509085306 20 150 9.7 22.5 0.00 0.00 0.00 78 1017.7
20260509084804 20 137 11.3 19.3 0.00 0.00 0.00 78 1017.7
20260509083305 20 126 14.5 25.7 0.00 0.00 0.00 77 1017.7
20260509082307 20 133 11.3 19.3 0.00 0.00 0.00 77 1017.7
20260509081805 20 152 9.7 16.1 0.00 0.00 0.00 76 1017.7
20260509081304 20 107 9.7 14.5 0.00 0.00 0.00 76 1017.7
20260509080804 20 127 11.3 19.3 0.00 0.00 0.00 76 1017.6
20260509080305 21 153 9.7 22.5 0.00 0.00 0.00 76 1017.7
20260509075805 21 146 9.7 19.3 0.00 0.00 0.00 75 1017.6
20260509074304 21 131 14.5 24.1 0.00 0.00 0.00 74 1017.4
20260509073805 21 142 16.1 22.5 0.00 0.00 0.00 74 1017.4
20260509073305 21 143 11.3 19.3 0.00 0.00 0.00 74 1017.3
20260509072804 21 161 19.3 19.3 0.00 0.00 0.00 73 1017.3
20260509072306 21 161 14.5 24.1 0.00 0.00 0.00 73 1017.2
20260509071804 21 113 12.9 24.1 0.00 0.00 0.00 73 1017.2
20260509071304 22 159 12.9 24.1 0.00 0.00 0.00 73 1017.1
20260509070805 22 152 9.7 19.3 0.00 0.00 0.00 73 1017.1
20260509070304 22 148 14.5 20.9 0.00 0.00 0.00 73 1017.0
20260509065306 22 149 14.5 27.4 0.00 0.00 0.00 72 1016.8
20260509064806 23 131 4.8 4.8 0.00 0.00 0.00 71 1016.7
20260509064304 23 131 6.4 16.1 0.00 0.00 0.00 71 1016.6
20260509063805 23 166 16.1 22.5 0.00 0.00 0.00 71 1016.6
20260509063304 25 3 0.0 0.0 0.00 0.00 0.00 66 1016.5
20260509062804 25 3 0.0 0.0 0.00 0.00 0.00 66 1016.3
20260509062306 25 3 0.0 0.0 0.00 0.00 0.00 66 1016.2
20260509061804 25 3 0.0 0.0 0.00 0.00 0.00 66 1016.1
20260509061304 25 3 0.0 0.0 0.00 0.00 0.00 66 1016.1
20260509060805 25 3 0.0 0.0 0.00 0.00 0.00 66 1016.0
20260509060304 25 3 0.0 0.0 0.00 0.00 0.00 66 1016.0
20260509055804 25 3 0.0 0.0 0.00 0.00 0.00 66 1016.0
20260509055307 25 3 0.0 0.0 0.00 0.00 0.00 66 1015.9
20260509054304 25 3 0.0 0.0 0.00 0.00 0.00 66 1015.8
20260509053805 25 3 0.0 0.0 0.00 0.00 0.00 66 1015.8
20260509053304 25 3 0.0 12.9 0.00 0.00 0.00 66 1015.7
20260509052805 25 160 12.9 12.9 0.00 0.00 0.00 66 1015.4
20260509052307 25 160 12.9 19.3 0.00 0.00 0.00 66 1015.5
20260509051305 26 143 11.3 24.1 0.00 0.00 0.00 66 1015.6
20260509050805 25 131 11.3 24.1 0.00 0.00 0.00 66 1015.5
20260509050304 25 133 14.5 20.9 0.00 0.00 0.00 67 1015.5
20260509045805 25 158 14.5 27.4 0.00 0.00 0.00 67 1015.6
20260509045306 25 107 11.3 22.5 0.00 0.00 0.00 67 1015.5
20260509044304 25 155 11.3 19.3 0.00 0.00 0.00 68 1015.6
20260509043804 25 105 16.1 24.1 0.00 0.00 0.00 67 1015.6
20260509043304 25 133 9.7 19.3 0.00 0.00 0.00 67 1015.6
20260509042805 25 167 19.3 27.4 0.00 0.00 0.00 67 1015.6
20260509042306 25 148 14.5 22.5 0.00 0.00 0.00 68 1015.6
20260509041304 25 158 16.1 24.1 0.00 0.00 0.00 69 1015.8
20260509040305 25 148 14.5 24.1 0.00 0.00 0.00 69 1016.0
20260509035806 25 149 11.3 25.7 0.00 0.00 0.00 69 1016.1
20260509035306 25 137 16.1 27.4 0.00 0.00 0.00 69 1016.1
20260509034804 24 156 12.9 27.4 0.00 0.00 0.00 70 1016.2
20260509034304 24 154 19.3 32.2 0.00 0.00 0.00 70 1016.2
20260509033804 24 128 16.1 25.7 0.00 0.00 0.00 70 1016.2
20260509033304 24 164 19.3 25.7 0.00 0.00 0.00 70 1016.3
20260509032805 24 146 16.1 22.5 0.00 0.00 0.00 70 1016.4
20260509032306 24 132 14.5 24.1 0.00 0.00 0.00 70 1016.4
20260509031804 24 145 12.9 22.5 0.00 0.00 0.00 70 1016.5
20260509030804 25 167 14.5 19.3 0.00 0.00 0.00 69 1016.4
20260509025306 25 142 12.9 22.5 0.00 0.00 0.00 68 1016.5
20260509024804 25 144 14.5 24.1 0.00 0.00 0.00 68 1016.6
20260509024304 25 137 14.5 19.3 0.00 0.00 0.00 68 1016.7
20260509023805 25 156 16.1 24.1 0.00 0.00 0.00 68 1016.8
20260509022804 25 157 14.5 22.5 0.00 0.00 0.00 70 1016.7
20260509022307 25 122 14.5 19.3 0.00 0.00 0.00 70 1016.8
20260509021804 25 127 14.5 22.5 0.00 0.00 0.00 70 1016.9
20260509021305 25 157 14.5 25.7 0.00 0.00 0.00 70 1017.0
20260509020804 25 148 16.1 25.7 0.00 0.00 0.00 71 1017.1
20260509015804 25 139 16.1 27.4 0.00 0.00 0.00 70 1017.2
20260509015306 25 155 17.7 27.4 0.00 0.00 0.00 72 1017.3
20260509014804 25 126 12.9 22.5 0.00 0.00 0.00 72 1017.2
20260509014304 24 148 16.1 25.7 0.00 0.00 0.00 72 1017.3
20260509013804 24 150 12.9 33.8 0.00 0.00 0.00 73 1017.4
20260509013304 23 139 19.3 29.0 0.00 0.00 0.00 73 1017.4
20260509012804 23 144 17.7 25.7 0.00 0.00 0.00 73 1017.6
20260509012307 23 150 16.1 27.4 0.00 0.00 0.00 74 1017.6
20260509011305 23 138 14.5 24.1 0.00 0.00 0.00 75 1017.7
20260509010804 23 127 14.5 32.2 0.00 0.00 0.00 74 1017.8
20260509010305 23 135 20.9 25.7 0.00 0.00 0.00 75 1017.8
20260509005804 23 155 19.3 19.3 0.00 0.00 0.00 73 1017.9
20260509005306 23 155 19.3 25.7 0.00 0.00 0.00 73 1017.9
20260509004804 23 152 17.7 29.0 0.00 0.00 0.00 73 1017.9
20260509004305 23 142 16.1 32.2 0.00 0.00 0.00 73 1017.9
20260509003804 23 150 16.1 32.2 0.00 0.00 0.00 72 1017.9
20260509003305 24 160 22.5 29.0 0.00 0.00 0.00 73 1017.9
20260509002804 23 147 16.1 32.2 0.00 0.00 0.00 73 1018.0
20260509001804 23 141 16.1 25.7 0.00 0.00 0.00 74 1017.9
20260509001304 23 159 24.1 33.8 0.00 0.00 0.00 74 1017.9
20260509000805 23 127 16.1 32.2 0.00 0.00 0.00 74 1017.9
20260509000304 23 118 16.1 22.5 0.00 0.00 0.00 74 1018.0
20260508235804 23 130 14.5 19.3 0.00 0.00 0.00 74 1018.0
20260508234804 23 2 0.0 12.9 0.00 0.00 0.00 75 1018.0
20260508234304 23 167 12.9 12.9 0.00 0.00 0.00 75 1017.9
20260508233805 23 167 12.9 20.9 0.00 0.00 0.00 75 1017.9
20260508233304 23 163 14.5 24.1 0.00 0.00 0.00 76 1017.9
20260508232307 22 115 17.7 29.0 0.00 0.00 0.00 75 1018.0
20260508231804 22 150 17.7 25.7 0.00 0.00 0.00 75 1018.0
20260508231304 22 129 4.8 24.1 0.00 0.00 0.00 74 1018.0
20260508230818 23 119 11.3 11.3 0.00 0.00 0.00 73 1018.0
20260508225805 23 146 19.3 22.5 0.00 0.00 0.00 73 1017.8
20260508225307 23 144 12.9 32.2 0.00 0.00 0.00 73 1017.8
20260508224804 23 156 16.1 27.4 0.00 0.00 0.00 74 1017.8